[[{"header":{"parameterUnit":"m.s-1","parameterCategory":1,"la1":30.2991,"la2":30.254,"lo1":-89.0895,"lo2":-89.0444,"dy":0.0017,"dx":0.0017,"nx":28,"ny":28,"refTime":"2025-12-01T09:00:00:Z","depth":0,"parameterNumber":2,"parameterNumberName":"U-component_of_WINDS"},"data":[0,0,0,0,0,0,0,0,0,0,0,0,0,0,0,0,0,0,0,0,0,0,0,0,0,0,0,0,0,0,0,0,0,0,0,0,0,0,0,0,0,0,0,0,0,0,0,0,0,0,0,0,0,0,0,0,0,0,-2.0164,-2.0165,0,-2.0214,-2.0215,-2.0215,-2.0168,-2.0166,-2.0164,-2.0162,-2.0215,-2.0218,-2.0221,0,0,0,0,0,0,0,0,0,0,0,0,0,-2.003,-2.0033,-2.0164,-2.0165,-2.0166,-2.0214,-2.0215,-2.0215,-2.0168,-2.0166,-2.0163,-2.0161,-2.0214,-2.0218,-2.0222,0,0,0,0,0,0,0,0,0,0,0,0,0,-2.0085,-2.0033,-2.0164,-2.0148,-2.0147,-2.0214,-2.0215,-2.0215,-2.0168,-2.0165,-2.0163,-2.016,-2.0213,-2.0217,-2.0222,-2.0309,0,0,-2.0237,-2.0239,0,0,0,0,0,0,0,0,-2.0082,-2.009,-2.015,-2.0149,-2.0148,-2.0182,-2.0187,-2.0247,-2.0169,-2.016,-2.0162,-2.0159,-2.0206,-2.0211,-2.0227,-2.0311,-2.0313,-2.0237,-2.024,-2.0242,-2.0243,0,0,0,0,0,0,0,-2.0078,-2.0087,-2.0184,-2.015,-2.015,-2.0138,-2.0143,-2.0198,-2.0199,-2.0161,-2.0157,-2.0164,-2.0205,-2.0223,-2.0228,-2.0314,-2.0237,-2.0241,-2.0244,-2.0246,-2.0472,-2.0475,0,0,0,0,0,0,-2.0076,-2.0085,-2.0182,-2.0186,-2.0107,-2.0143,-2.0148,-2.0174,-2.0198,-2.0199,-2.0166,-2.0161,-2.0216,-2.0222,-2.023,-2.0333,-2.0242,-2.0246,-2.0249,-2.0469,-2.0472,-2.0476,0,0,0,0,0,0,-2.0073,-2.0085,-2.018,-2.0134,-2.0145,-2.0148,-2.0177,-2.0176,-2.0193,-2.0202,-2.0202,-2.0184,-2.0214,-2.0223,-2.0289,-2.0334,-2.0249,-2.0253,-2.0465,-2.047,-2.0474,-2.0541,0,0,0,0,0,0,-2.0069,-2.0084,-2.0117,-2.0135,-2.0148,-2.0239,-2.018,-2.0179,-2.0202,-2.0196,-2.0218,-2.022,-2.0212,-2.0282,-2.0294,-2.0339,-2.0257,-2.0461,-2.0467,-2.0473,-2.0535,-2.0547,-2.0558,0,0,0,0,0,-2.0065,-2.0134,-2.0119,-2.0131,-2.0189,-2.0242,-2.0249,-2.0239,-2.0205,-2.0239,-2.0244,-2.0219,-2.0327,-2.029,-2.0302,-2.035,-2.0458,-2.0465,-2.0472,-2.0529,-2.0545,-2.0558,0,0,0,0,0,0,-2.0122,-2.0136,-2.012,-2.0197,-2.0218,-2.0234,-2.0275,-2.0255,-2.0288,-2.0281,-2.0267,-2.0273,-2.0343,-2.0353,-2.0311,-2.0435,-2.0387,-2.0397,-2.0426,-2.0441,-2.0452,-2.0449,-2.0261,0,0,0,0,0,-2.0144,-2.0185,-2.0195,-2.0262,-2.0274,-2.0273,-2.0295,-2.0285,-2.0307,-2.0317,-2.0327,-2.035,-2.0389,-2.0415,-2.0451,-2.0535,-2.054,-2.0574,-2.0585,-2.0595,-2.0604,-2.0649,-2.0665,-2.0499,-2.0499,-2.0499,0,0,-2.0189,-2.0202,-2.0229,-2.0274,-2.029,-2.0333,-2.0281,-2.0329,-2.0361,-2.0324,-2.0387,-2.0396,-2.042,-2.0496,-2.0529,-2.0506,-2.0651,-2.0604,-2.0611,-2.0616,-2.0658,-2.0674,-2.0688,-2.0504,-2.0503,-2.0502,0,0,-2.0294,-2.0307,-2.0365,-2.0381,-2.0405,-2.0404,-2.0417,-2.0435,-2.0439,-2.0502,-2.0475,-2.0513,-2.0581,-2.06,-2.0618,-2.0729,-2.0707,-2.0741,-2.0803,-2.0847,-2.086,-2.0871,-2.0912,-2.0926,-2.075,-2.075,-2.075,0,-2.0348,-2.0412,-2.0397,-2.0448,-2.0469,-2.0435,-2.0494,-2.0511,-2.0546,-2.0561,-2.0534,-2.0618,-2.0632,-2.0711,-2.0738,-2.0754,-2.077,-2.0739,-2.0859,-2.087,-2.0881,-2.0919,-2.0935,-2.0754,-2.0753,-2.0753,-2.0753,0,-2.0477,-2.0522,-2.0565,-2.0599,-2.0625,-2.0679,-2.0673,-2.0701,-2.0688,-2.069,-2.0754,-2.077,-2.0809,-2.0827,-2.0815,-2.0905,-2.0889,-2.0861,-2.0813,-2.0901,-2.0937,-2.0952,-2.076,-2.0758,-2.0757,-2.0756,0,0,-2.0622,-2.0646,-2.0662,-2.0677,-2.07,-2.0735,-2.0787,-2.0824,-2.0849,-2.0873,-2.0918,-2.0975,-2.0948,-2.0969,-2.0959,-2.0998,-2.1085,-2.0964,-2.0965,-2.0987,-2.1186,-2.1208,-2.1225,-2.107,-2.1073,-2.1075,-2.1184,0,-2.0728,-2.0819,-2.0807,-2.0895,-2.0936,-2.0904,-2.095,-2.0969,-2.0972,-2.1008,-2.101,-2.1052,-2.1013,-2.1025,-2.1062,-2.1067,-2.1125,-2.1059,-2.1112,-2.1114,-2.1109,-2.1244,-2.1268,-2.137,-2.1198,-2.12,-2.1202,0,-2.0866,-2.0894,-2.0986,-2.1002,-2.1019,-2.106,-2.1093,-2.1127,-2.1149,-2.1148,-2.117,-2.1153,-2.1206,-2.1156,-2.1229,-2.1184,-2.1205,-2.1211,-2.1214,-2.122,-2.1165,-2.1255,-2.1402,-2.1418,-2.1224,-2.1222,-2.122,0,-2.0964,-2.1025,-2.1087,-2.1101,-2.1121,-2.1151,-2.1161,-2.1179,-2.1202,-2.1231,-2.1246,-2.1281,-2.13,-2.1328,-2.1321,-2.1284,-2.1396,-2.1345,-2.1397,-2.1398,-2.1424,-2.1423,-2.1578,-2.1435,-2.1435,-2.1434,-2.1434,0,-2.1085,-2.1142,-2.1132,-2.1171,-2.1234,-2.1219,-2.1283,-2.1289,-2.1305,-2.1344,-2.1319,-2.1357,-2.1344,-2.1381,-2.1376,-2.1438,-2.1446,-2.1448,-2.1446,-2.1451,-2.1451,-2.1466,-2.1459,-2.1438,-2.1438,-2.1437,-2.1436,0,-2.1206,-2.1201,-2.1267,-2.128,-2.1285,-2.1331,-2.1343,-2.1379,-2.1379,-2.1429,-2.144,-2.144,-2.1483,-2.1478,-2.1525,-2.1521,-2.1599,-2.1588,-2.1592,-2.159,-2.1643,-2.1639,-2.1815,-2.1838,-2.1678,-2.168,-2.1681,0,-2.1285,-2.1328,-2.1345,-2.137,-2.1382,-2.1421,-2.1444,-2.1431,-2.1456,-2.1483,-2.1517,-2.1556,-2.1588,-2.1657,-2.1662,-2.1698,-2.1688,-2.1747,-2.1694,-2.1697,-2.1691,-2.1689,-2.1693,-2.1759,-2.1761,-2.1762,-2.1763,0,-2.1426,-2.142,-2.1454,-2.1488,-2.1516,-2.1541,-2.1564,-2.1586,-2.1575,-2.1604,-2.1647,-2.1671,-2.1719,-2.1759,-2.1793,-2.1803,-2.1782,-2.178,-2.1794,-2.1801,-2.1802,-2.1803,-2.1622,-2.1776,-2.1775,-2.1774,-2.1773,-2.1773,-2.1529,-2.1566,-2.1584,-2.1622,-2.1638,-2.166,-2.1695,-2.1698,-2.1733,-2.1771,-2.1761,-2.1809,-2.1828,-2.1872,-2.1885,-2.1923,-2.1902,-2.1922,-2.1928,-2.1934,-2.1941,-2.1794,-2.1929,-2.1929,-2.1929,-2.1928,-2.1928,0,-2.1669,-2.1679,-2.1714,-2.1747,-2.1777,-2.1752,-2.1776,-2.1804,-2.1846,-2.1866,-2.1897,-2.1946,-2.1984,-2.1991,-2.2028,-2.2057,-2.2048,-2.2067,-2.2066,-2.2069,-2.1957,-2.1942,-2.2074,-2.2074,-2.2074,-2.2074,-2.2074,-2.2073,-2.1746,-2.1808,-2.1805,-2.1874,-2.1882,-2.1929,-2.1945,-2.1965,-2.1981,-2.2036,-2.2068,-2.2071,-2.2086,-2.2123,-2.2158,-2.2158,-2.2174,-2.2197,-2.2195,-2.2091,-2.2076,-2.2063,-2.2048,-2.22,-2.2201,-2.2303,-2.2304,-2.2305]},{"header":{"parameterUnit":"m.s-1","parameterCategory":1,"la1":30.2991,"la2":30.254,"lo1":-89.0895,"lo2":-89.0444,"dy":0.0017,"dx":0.0017,"nx":28,"ny":28,"refTime":"2025-12-01T09:00:00:Z","depth":0,"parameterNumber":3,"parameterNumberName":"V-component_of_WINDS"},"data":[0,0,0,0,0,0,0,0,0,0,0,0,0,0,0,0,0,0,0,0,0,0,0,0,0,0,0,0,0,0,0,0,0,0,0,0,0,0,0,0,0,0,0,0,0,0,0,0,0,0,0,0,0,0,0,0,0,0,-7.5207,-7.5207,0,-7.5269,-7.527,-7.5271,-7.5169,-7.5166,-7.5162,-7.5159,-7.5217,-7.5222,-7.5227,0,0,0,0,0,0,0,0,0,0,0,0,0,-7.4993,-7.4997,-7.5206,-7.5207,-7.5208,-7.5269,-7.527,-7.5271,-7.517,-7.5166,-7.5161,-7.5158,-7.5216,-7.5221,-7.5227,0,0,0,0,0,0,0,0,0,0,0,0,0,-7.5073,-7.4999,-7.5206,-7.5165,-7.5162,-7.5269,-7.527,-7.5271,-7.5171,-7.5166,-7.516,-7.5156,-7.5214,-7.5221,-7.5228,-7.5376,0,0,-7.525,-7.5253,0,0,0,0,0,0,0,0,-7.5069,-7.5081,-7.517,-7.5168,-7.5165,-7.5206,-7.5216,-7.5306,-7.5172,-7.5167,-7.5159,-7.5153,-7.5217,-7.5224,-7.5247,-7.5379,-7.5381,-7.525,-7.5255,-7.5258,-7.526,0,0,0,0,0,0,0,-7.5063,-7.5078,-7.5231,-7.5172,-7.5169,-7.5141,-7.5147,-7.5232,-7.522,-7.5167,-7.516,-7.5169,-7.5215,-7.524,-7.5248,-7.5382,-7.525,-7.5257,-7.5261,-7.5264,-7.5638,-7.5643,0,0,0,0,0,0,-7.5064,-7.5074,-7.5229,-7.5233,-7.5103,-7.515,-7.5156,-7.5198,-7.5219,-7.5218,-7.5174,-7.5164,-7.5231,-7.5239,-7.5249,-7.5424,-7.5258,-7.5265,-7.5269,-7.5632,-7.5639,-7.5645,0,0,0,0,0,0,-7.506,-7.5079,-7.5226,-7.5152,-7.5168,-7.5159,-7.5207,-7.5202,-7.5227,-7.5224,-7.5221,-7.5202,-7.5227,-7.5239,-7.5346,-7.5424,-7.5268,-7.5274,-7.5625,-7.5634,-7.5642,-7.5775,0,0,0,0,0,0,-7.5054,-7.5078,-7.5136,-7.5154,-7.5173,-7.5324,-7.5212,-7.5207,-7.5241,-7.5229,-7.525,-7.5249,-7.5224,-7.5335,-7.5353,-7.5432,-7.528,-7.5618,-7.5629,-7.5639,-7.5763,-7.5787,-7.5807,0,0,0,0,0,-7.5047,-7.5169,-7.5139,-7.5158,-7.5245,-7.5329,-7.534,-7.531,-7.5248,-7.5305,-7.5302,-7.5248,-7.5413,-7.5347,-7.5366,-7.5448,-7.5613,-7.5626,-7.5638,-7.5754,-7.5782,-7.5806,0,0,0,0,0,0,-7.5158,-7.5171,-7.5137,-7.527,-7.53,-7.5312,-7.5383,-7.5341,-7.5388,-7.5375,-7.5334,-7.534,-7.5454,-7.5461,-7.5388,-7.5592,-7.5502,-7.5519,-7.5583,-7.5611,-7.5632,-7.5628,-7.5286,0,0,0,0,0,-7.5199,-7.5268,-7.5274,-7.539,-7.5407,-7.5393,-7.5428,-7.5403,-7.5431,-7.5442,-7.5448,-7.5475,-7.5533,-7.5572,-7.5625,-7.5764,-7.5766,-7.5829,-7.5851,-7.5869,-7.5884,-7.5957,-7.5985,-7.5686,-7.5686,-7.5686,0,0,-7.5282,-7.5297,-7.5343,-7.5413,-7.5433,-7.5503,-7.5404,-7.5482,-7.5534,-7.5453,-7.5555,-7.556,-7.5588,-7.5711,-7.5765,-7.572,-7.5967,-7.5885,-7.5899,-7.5905,-7.5973,-7.6001,-7.6026,-7.5695,-7.5694,-7.5692,0,0,-7.547,-7.5489,-7.5588,-7.5611,-7.5643,-7.5633,-7.5657,-7.5675,-7.5676,-7.5778,-7.5719,-7.5778,-7.5879,-7.5901,-7.5926,-7.6123,-7.6074,-7.6141,-7.6255,-7.6326,-7.635,-7.6371,-7.6441,-7.6466,-7.6156,-7.6156,-7.6157,0,-7.5569,-7.5676,-7.5644,-7.5728,-7.5759,-7.5692,-7.5791,-7.5813,-7.586,-7.5883,-7.5832,-7.5957,-7.5971,-7.6099,-7.6147,-7.6169,-7.6194,-7.6139,-7.635,-7.637,-7.6389,-7.6455,-7.6481,-7.6164,-7.6163,-7.6162,-7.6162,0,-7.5795,-7.587,-7.5946,-7.5996,-7.6036,-7.6127,-7.6107,-7.6151,-7.6122,-7.6117,-7.622,-7.6235,-7.629,-7.6318,-7.6289,-7.6441,-7.6412,-7.6357,-7.6265,-7.6426,-7.6487,-7.6512,-7.6176,-7.6173,-7.617,-7.6168,0,0,-7.6056,-7.6088,-7.6116,-7.6138,-7.6168,-7.6224,-7.6311,-7.6367,-7.6405,-7.6439,-7.651,-7.6597,-7.6546,-7.6574,-7.6548,-7.6611,-7.6766,-7.6547,-7.6547,-7.6587,-7.6933,-7.6975,-7.7005,-7.6734,-7.6738,-7.6742,-7.6931,0,-7.6244,-7.6397,-7.6371,-7.6518,-7.6586,-7.6522,-7.6598,-7.6623,-7.6621,-7.6676,-7.6671,-7.6734,-7.6661,-7.6677,-7.6737,-7.6734,-7.6835,-7.672,-7.6798,-7.6801,-7.6794,-7.7037,-7.7082,-7.726,-7.6954,-7.6958,-7.6961,0,-7.6483,-7.6529,-7.6685,-7.6705,-7.6732,-7.6801,-7.6849,-7.6904,-7.6931,-7.6924,-7.6956,-7.6917,-7.7002,-7.691,-7.7025,-7.6948,-7.6978,-7.6981,-7.6987,-7.6993,-7.6891,-7.705,-7.7316,-7.7343,-7.6999,-7.6996,-7.6993,0,-7.6658,-7.6758,-7.6864,-7.6885,-7.691,-7.696,-7.6973,-7.6995,-7.703,-7.7072,-7.7094,-7.7144,-7.7172,-7.7211,-7.7186,-7.7122,-7.7306,-7.7212,-7.7301,-7.7302,-7.7343,-7.7341,-7.7617,-7.7362,-7.7362,-7.7361,-7.7361,0,-7.6871,-7.6968,-7.6943,-7.7008,-7.7115,-7.7083,-7.7188,-7.7193,-7.7213,-7.7277,-7.7223,-7.7283,-7.7248,-7.7304,-7.7285,-7.7383,-7.7396,-7.7392,-7.7386,-7.7397,-7.7398,-7.7416,-7.7403,-7.7368,-7.7367,-7.7365,-7.7364,0,-7.7084,-7.7072,-7.7183,-7.7199,-7.7205,-7.7283,-7.7295,-7.7355,-7.7348,-7.7429,-7.7445,-7.7434,-7.7498,-7.7478,-7.7546,-7.7533,-7.7657,-7.7635,-7.7649,-7.7644,-7.7735,-7.7727,-7.8033,-7.8071,-7.7792,-7.7794,-7.7796,0,-7.7221,-7.7295,-7.7319,-7.7359,-7.7377,-7.7441,-7.7477,-7.7448,-7.7487,-7.7524,-7.7579,-7.7638,-7.7685,-7.7789,-7.7786,-7.7837,-7.7816,-7.792,-7.7823,-7.7832,-7.7818,-7.7814,-7.7821,-7.7939,-7.7942,-7.7945,-7.7947,0,-7.7465,-7.7455,-7.7511,-7.7565,-7.761,-7.765,-7.7685,-7.772,-7.7692,-7.7739,-7.7805,-7.7841,-7.7912,-7.7971,-7.8018,-7.8028,-7.7983,-7.7977,-7.8001,-7.8013,-7.8019,-7.8017,-7.7702,-7.7971,-7.7968,-7.7966,-7.7965,-7.7964,-7.7644,-7.7707,-7.7735,-7.7798,-7.7822,-7.7856,-7.7913,-7.7914,-7.7969,-7.8026,-7.8004,-7.808,-7.8104,-7.8162,-7.8179,-7.8236,-7.8196,-7.823,-7.8239,-7.8248,-7.826,-7.801,-7.8244,-7.8244,-7.8243,-7.8242,-7.8242,0,-7.7886,-7.7901,-7.796,-7.8012,-7.8061,-7.8016,-7.8052,-7.8096,-7.8164,-7.8192,-7.8239,-7.8314,-7.8372,-7.8373,-7.8426,-7.8472,-7.8452,-7.8486,-7.8483,-7.8486,-7.8292,-7.8267,-7.8501,-7.8501,-7.8501,-7.8501,-7.8501,-7.8501,-7.8018,-7.8122,-7.8115,-7.8229,-7.8242,-7.8318,-7.8343,-7.8373,-7.8395,-7.8482,-7.8531,-7.8532,-7.8548,-7.8602,-7.8652,-7.8651,-7.8673,-7.8715,-7.8706,-7.8525,-7.8499,-7.8475,-7.8451,-7.872,-7.872,-7.8895,-7.8896,-7.8897]}]]